Tracking 19576 objects as of 17-Feb-2019
HD Live streaming from Space Station
objects crossing your sky now

METEOR 2-5 DEB

Track METEOR 2-5 DEB now!
10-day predictions


NORAD ID: 38271
Int'l Code: 1979-095BR
Perigee: 843.0 km
Apogee: 844.3 km
Inclination: 81.2 °
Period: 101.6 minutes
Semi major axis: 7214 km
RCS: 0.0002 m2 (small)
Launch date: October 31, 1979
Source: Commonwealth of Independent States (former USSR) (CIS)
Launch site: PLESETSK MISSILE AND SPACE COMPLEX (PKMTR)

Note: This is SATELLITE DEBRIS
aabbcc
Your satellite tracking list
Your tracking list is empty




NASA's NSSDC Master Catalog

Two Line Element Set (TLE):
1 38271U 79095BR  19046.37023644 +.00000870 +00000-0 +42919-3 0  9993
2 38271 081.2047 289.6569 0000881 198.6152 161.4990 14.16715470379060
Source of the keplerian elements: AFSPC